Joshua Tree, CA

3:09 AM PST on December 04, 2016 (GMT -0800)
Twentynine Palms Expeditionary Air Field

Weather History for KNXP - October, 2012

Change the Weather History Date:

Saturday, October 20, 2012

  Actual Average Record
Temperature  
Mean Temperature 72 °F -  
Max Temperature 89 °F 78 °F 95 °F (2003)
Min Temperature 57 °F 52 °F 46 °F (1996)
Cooling Degree Days 8    
Growing Degree Days 22 (Base 50)    
Moisture  
Dew Point 34 °F    
Average Humidity 26    
Maximum Humidity 39    
Minimum Humidity 15    
Precipitation  
Precipitation 0.00 in - - ()
Sea Level Pressure  
Sea Level Pressure 29.77 in    
Wind  
Wind Speed 7 mph (West)    
Max Wind Speed 22 mph    
Max Gust Speed 30 mph    
Visibility 10 miles    
Events      
Averages and records for this station are not official NWS values.
T = Trace of Precipitation, MM = Missing Value Source: NWS Daily Summary

Daily Weather History Graph

Daily Weather History Graph

Search for Another Location

Airport or City:

Trip Planner

Search our weather history database for the weather conditions in past years. The results will help you decide how hot, cold, wet, or windy it might be!

Date:

Astronomy

Oct. 20, 2012 Rise Set
Actual Time 6:54 AM PDT 6:03 PM PDT
Civil Twilight 6:29 AM PDT 6:28 PM PDT
Nautical Twilight 5:59 AM PDT 6:58 PM PDT
Astronomical Twilight 5:30 AM PDT 7:27 PM PDT
Moon 12:26 PM PDT (10/20) 11:01 PM PDT (10/20)
Length of Visible Light 11h 59m
Length of Day
11h 09m
Waxing Crescent, 35% of the Moon is Illuminated
Oct 20
Waxing Crescent
Oct 21
First Quarter
Oct 29
Full
Nov 6
Last Quarter
Nov 13
New

Hourly Weather History & Observations

Time (PDT) Temp. Dew Point Humidity Pressure Visibility Wind Dir Wind Speed Gust Speed Precip Events Conditions
12:56 AM 68.0 °F 33.1 °F 27% 29.83 in 10.0 mi West 10.4 mph - N/A   Clear
1:56 AM 66.0 °F 36.0 °F 33% 29.83 in 10.0 mi West 6.9 mph - N/A   Clear
2:56 AM 64.9 °F 39.0 °F 39% 29.81 in 10.0 mi WSW 9.2 mph - N/A   Clear
3:56 AM 64.9 °F 34.0 °F 32% 29.80 in 10.0 mi WNW 4.6 mph - N/A   Clear
4:56 AM 62.1 °F 30.9 °F 31% 29.81 in 10.0 mi NW 8.1 mph - N/A   Clear
5:56 AM 62.1 °F 28.9 °F 29% 29.81 in 10.0 mi WNW 8.1 mph - N/A   Clear
6:56 AM 57.9 °F 28.9 °F 33% 29.82 in 10.0 mi Calm Calm - N/A   Clear
7:56 AM 62.1 °F 30.9 °F 31% 29.83 in 10.0 mi Calm Calm - N/A   Clear
8:56 AM 62.1 °F 33.1 °F 34% 29.85 in 10.0 mi Calm Calm - N/A   Clear
9:56 AM 70.0 °F 37.9 °F 31% 29.83 in 10.0 mi NNW 3.5 mph - N/A   Clear
10:56 AM 77.0 °F 37.0 °F 24% 29.81 in 10.0 mi Calm Calm - N/A   Clear
11:56 AM 81.0 °F 33.1 °F 18% 29.78 in 10.0 mi Calm Calm - N/A   Clear
12:56 PM 84.9 °F 34.0 °F 16% 29.75 in 10.0 mi NNE 3.5 mph - N/A   Clear
1:56 PM 86.0 °F 34.0 °F 16% 29.72 in 10.0 mi Calm Calm - N/A   Clear
2:56 PM 88.0 °F 34.0 °F 15% 29.70 in 10.0 mi SW 17.3 mph - N/A   Clear
3:56 PM 87.1 °F 33.1 °F 15% 29.69 in 10.0 mi SSW 16.1 mph - N/A   Clear
4:56 PM 84.0 °F 33.1 °F 16% 29.69 in 10.0 mi SW 20.7 mph - N/A   Clear
5:56 PM 80.1 °F 32.0 °F 17% 29.68 in 10.0 mi SSW 21.9 mph 29.9 mph N/A   Clear
6:56 PM 77.0 °F 36.0 °F 23% 29.70 in 10.0 mi SSW 17.3 mph 26.5 mph N/A   Clear
7:56 PM 73.9 °F 39.0 °F 28% 29.71 in 10.0 mi SW 12.7 mph - N/A   Clear
8:56 PM 73.0 °F 39.0 °F 29% 29.73 in 10.0 mi Calm Calm - N/A   Clear
9:56 PM 68.0 °F 37.0 °F 32% 29.74 in 10.0 mi Calm Calm - N/A   Clear
10:56 PM 66.9 °F 37.0 °F 33% 29.75 in 10.0 mi WNW 4.6 mph - N/A   Clear
11:56 PM 66.0 °F 36.0 °F 33% 29.75 in 10.0 mi NW 6.9 mph - N/A   Clear